マクノート彗星

C/2005 L3 ( McNaught )

English version
Home page
Total 6,336 html files since Dec. 4, 1995
Updated on June 21, 2008

---------------------------------------------------------------------

・ プロフィール

発見日 2005年6月3日
発見光度 17.7等
発見者 R. H. McNaught (Siding Spring)

・ 写真集

・ 軌道要素

The following orbital elements are taken from MPC 59596:

Epoch 2008 Jan. 15.0 TT = JDT 2454480.5
T 2008 Jan. 16.0047 TT                                  MPC
q   5.593266             (2000.0)            P               Q
z  +0.000015       Peri.   47.0969      -0.3083744      -0.7251638
 +/-0.000001       Node   288.7390      -0.9449576      +0.3079265
e   0.999918       Incl.  139.4489      +0.1093632      +0.6158885
From 374 observations 2004 July 16-2007 Apr. 22, mean residual 0".6.

・ 星図

・ 光度変化

        m1 = 3.6 + 5 logΔ + 10.0 log r

---------------------------------------------------------------------

軌道要素はMPCのEphemerides and Orbital Elementsに掲載されたものです。
星図は StellaNavigator Ver.2.0 for Windows (アストロアーツ 編著 / アスキー出版局刊) で作成したものです。
光度グラフはComet for Windowsで作成したものです。

---------------------------------------------------------------------

Copyright(C) 1995-2008 Seiichi Yoshida (comet@aerith.net). All rights reserved.